Time[GMT],salinity[psu](20m),sigma_t[kg/m^3](20m),conductivity[msiemens/cm](20m),temperature[C](20m)
2009-05-27 17:00,30.981,24.231,31.767,7.18
2009-05-27 18:00,30.991,24.237,31.793,7.20
2009-05-27 19:00,31.103,24.345,31.763,7.04
2009-05-27 20:00,31.081,24.330,31.735,7.03
2009-05-27 21:00,31.061,24.306,31.766,7.09
2009-05-27 22:00,31.207,24.459,31.655,6.80
2009-05-27 23:00,31.027,24.272,31.785,7.15
2009-05-28 00:00,31.150,24.400,31.697,6.91
2009-05-28 01:00,31.199,24.453,31.645,6.79
2009-05-28 02:00,31.131,24.386,31.671,6.90
2009-05-28 04:00,30.815,24.062,31.853,7.47
2009-05-28 05:00,30.957,24.206,31.786,7.23
2009-05-28 06:00,30.883,24.133,31.809,7.34
2009-05-28 07:00,30.923,24.167,31.829,7.32
2009-05-28 08:00,31.161,24.411,31.685,6.88
2009-05-28 09:00,30.900,24.147,31.816,7.33
2009-05-28 10:00,31.037,24.289,31.736,7.08
2009-05-28 11:00,30.834,24.079,31.854,7.45
2009-05-28 12:00,30.874,24.123,31.817,7.36
2009-05-28 13:00,31.187,24.440,31.651,6.81
2009-05-28 14:00,31.117,24.374,31.661,6.90
2009-05-28 15:00,31.013,24.265,31.738,7.11
2009-05-28 16:00,30.875,24.120,31.843,7.39
2009-05-28 17:00,30.923,24.167,31.829,7.32
2009-05-28 18:00,30.972,24.216,31.808,7.24
2009-05-28 19:00,31.037,24.278,31.802,7.16
2009-05-28 20:00,31.017,24.255,31.825,7.21
2009-05-28 21:00,31.039,24.279,31.804,7.16
2009-05-28 22:00,30.872,24.110,31.890,7.45
2009-05-28 23:00,30.946,24.186,31.842,7.31
2009-05-29 00:00,30.846,24.086,31.882,7.47
2009-05-29 01:00,30.995,24.237,31.813,7.22
2009-05-29 02:00,30.910,24.150,31.859,7.37
2009-05-29 03:00,30.924,24.164,31.855,7.35
2009-05-29 04:00,30.870,24.108,31.888,7.45
2009-05-29 05:00,30.980,24.223,31.816,7.24
2009-05-29 06:00,30.858,24.111,31.802,7.36
2009-05-29 07:00,30.888,24.136,31.813,7.34
2009-05-29 08:00,31.026,24.275,31.750,7.11
2009-05-29 09:00,31.058,24.309,31.730,7.05
2009-05-29 10:00,30.999,24.250,31.759,7.15
2009-05-29 11:00,30.906,24.160,31.772,7.27
2009-05-29 12:00,30.809,24.071,31.765,7.37
2009-05-29 13:00,30.817,24.078,31.764,7.36
2009-05-29 14:00,31.133,24.389,31.659,6.88
2009-05-29 15:00,31.009,24.261,31.743,7.12
2009-05-29 16:00,30.960,24.214,31.747,7.18
2009-05-29 17:00,30.920,24.174,31.768,7.25
2009-05-29 18:00,30.897,24.139,31.855,7.38
2009-05-29 19:00,30.971,24.224,31.758,7.18
2009-05-29 20:00,30.949,24.198,31.787,7.24
2009-05-29 21:00,31.068,24.320,31.714,7.02
2009-05-29 22:00,31.049,24.302,31.722,7.05
2009-05-29 23:00,31.045,24.304,31.685,7.01
2009-05-30 00:00,31.045,24.302,31.693,7.02
2009-05-30 01:00,30.798,24.057,31.788,7.41
2009-05-30 02:00,31.055,24.308,31.719,7.04
2009-05-30 03:00,30.975,24.230,31.736,7.15
2009-05-30 04:00,30.772,24.035,31.772,7.42
2009-05-30 05:00,31.055,24.308,31.719,7.04
2009-05-30 06:00,30.851,24.112,31.754,7.31
2009-05-30 07:00,30.977,24.237,31.705,7.11
2009-05-30 08:00,30.910,24.177,31.693,7.17
2009-05-30 09:00,31.026,24.294,31.634,6.97
2009-05-30 10:00,31.038,24.306,31.629,6.95
2009-05-30 11:00,31.069,24.333,31.638,6.93
2009-05-30 12:00,31.004,24.270,31.655,7.02
2009-05-30 13:00,30.971,24.235,31.683,7.09
2009-05-30 14:00,31.014,24.277,31.673,7.03
2009-05-30 15:00,31.116,24.379,31.630,6.86
2009-05-30 16:00,30.866,24.138,31.677,7.20
2009-05-30 17:00,30.877,24.147,31.687,7.20
2009-05-30 18:00,30.819,24.093,31.683,7.26
2009-05-30 19:00,30.850,24.109,31.761,7.32
2009-05-30 20:00,30.974,24.236,31.694,7.10
2009-05-30 21:00,30.996,24.255,31.706,7.09
2009-05-30 22:00,31.025,24.284,31.691,7.04
2009-05-30 23:00,31.105,24.365,31.650,6.90
2009-05-31 00:00,31.065,24.330,31.633,6.93
2009-05-31 01:00,31.008,24.269,31.684,7.05
2009-05-31 02:00,30.958,24.216,31.729,7.16
2009-05-31 03:00,31.036,24.302,31.646,6.97
2009-05-31 04:00,30.956,24.219,31.694,7.12
2009-05-31 05:00,31.017,24.280,31.667,7.02
2009-05-31 06:00,30.952,24.229,31.607,7.02
2009-05-31 07:00,30.729,23.995,31.773,7.47
2009-05-31 08:00,30.874,24.135,31.742,7.27
2009-05-31 09:00,31.001,24.264,31.677,7.05
2009-05-31 10:00,31.015,24.278,31.665,7.02
2009-05-31 11:00,31.050,24.312,31.664,6.98
2009-05-31 12:00,31.077,24.340,31.639,6.92
2009-05-31 13:00,30.977,24.236,31.713,7.12
2009-05-31 14:00,30.988,24.246,31.715,7.11
2009-05-31 15:00,30.976,24.231,31.737,7.15
2009-05-31 16:00,31.108,24.375,31.603,6.84
2009-05-31 17:00,30.970,24.233,31.690,7.10
2009-05-31 18:00,31.004,24.271,31.647,7.01
2009-05-31 19:00,30.983,24.250,31.661,7.05
2009-05-31 20:00,30.846,24.085,31.890,7.48
2009-05-31 21:00,30.959,24.206,31.796,7.24
2009-05-31 22:00,31.041,24.297,31.706,7.04
2009-05-31 23:00,31.045,24.296,31.735,7.07
2009-06-01 00:00,31.076,24.334,31.677,6.97
2009-06-01 01:00,31.036,24.290,31.718,7.06
2009-06-01 02:00,30.975,24.213,31.844,7.28
2009-06-01 03:00,30.968,24.205,31.855,7.30
2009-06-01 04:00,31.079,24.339,31.663,6.95
2009-06-01 05:00,31.010,24.256,31.777,7.16
2009-06-01 06:00,30.989,24.241,31.749,7.15
2009-06-01 07:00,31.059,24.310,31.731,7.05
2009-06-01 08:00,30.845,24.098,31.807,7.38
2009-06-01 09:00,30.842,24.094,31.812,7.39
2009-06-01 10:00,30.843,24.100,31.780,7.35
2009-06-01 11:00,31.004,24.262,31.705,7.08
2009-06-01 12:00,30.972,24.229,31.725,7.14
2009-06-01 13:00,30.966,24.197,31.894,7.35
2009-06-01 14:00,30.986,24.232,31.788,7.20
2009-06-01 15:00,30.990,24.241,31.759,7.16
2009-06-01 16:00,31.015,24.271,31.715,7.08
2009-06-01 17:00,31.115,24.375,31.643,6.88
2009-06-01 18:00,31.030,24.290,31.688,7.03
2009-06-01 19:00,30.889,24.123,31.906,7.45
2009-06-01 20:00,30.978,24.219,31.822,7.25
2009-06-01 21:00,30.970,24.216,31.798,7.23
2009-06-01 22:00,31.050,24.297,31.756,7.09
2009-06-01 23:00,30.995,24.238,31.805,7.21
2009-06-02 00:00,31.048,24.290,31.787,7.13
2009-06-02 01:00,31.088,24.336,31.733,7.02
2009-06-02 02:00,31.104,24.354,31.716,6.98
2009-06-02 03:00,31.085,24.336,31.713,7.00
2009-06-02 04:00,30.994,24.241,31.779,7.18
2009-06-02 05:00,31.049,24.300,31.730,7.06
2009-06-02 06:00,31.112,24.365,31.690,6.94
2009-06-02 07:00,31.073,24.335,31.652,6.94
2009-06-02 08:00,31.081,24.330,31.735,7.03
2009-06-02 09:00,30.875,24.117,31.859,7.41
2009-06-02 10:00,31.040,24.290,31.747,7.09
2009-06-02 11:00,31.086,24.336,31.723,7.01
2009-06-02 12:00,31.041,24.287,31.764,7.11
2009-06-02 13:00,31.114,24.362,31.722,6.98
2009-06-02 14:00,31.174,24.421,31.704,6.89
2009-06-02 15:00,31.166,24.414,31.700,6.89
2009-06-02 16:00,31.072,24.333,31.660,6.95
2009-06-02 17:00,31.021,24.265,31.787,7.16
2009-06-02 18:00,31.097,24.345,31.733,7.01
2009-06-02 19:00,31.135,24.392,31.659,6.88
2009-06-02 20:00,31.119,24.373,31.686,6.93
2009-06-02 21:00,30.825,24.001,32.278,7.97
2009-06-02 22:00,30.848,24.065,32.025,7.64
2009-06-02 23:00,31.009,24.232,31.926,7.34
2009-06-03 00:00,31.078,24.298,31.915,7.25
2009-06-03 01:00,31.115,24.333,31.916,7.21
2009-06-03 02:00,31.130,24.352,31.880,7.15
2009-06-03 03:00,31.179,24.415,31.771,6.97
2009-06-03 04:00,31.042,24.288,31.765,7.11
2009-06-03 05:00,31.032,24.279,31.764,7.12
2009-06-03 06:00,30.992,24.238,31.785,7.19
2009-06-03 07:00,31.127,24.371,31.744,6.99
2009-06-03 08:00,31.096,24.340,31.757,7.04
2009-06-03 09:00,31.165,24.401,31.775,6.99
2009-06-03 10:00,30.982,24.216,31.868,7.30
2009-06-03 11:00,31.016,24.244,31.891,7.29
2009-06-03 12:00,31.044,24.270,31.892,7.26
2009-06-03 13:00,31.044,24.284,31.809,7.16
2009-06-03 14:00,31.120,24.364,31.745,7.00
2009-06-03 15:00,31.159,24.393,31.790,7.01
2009-06-03 16:00,31.104,24.338,31.814,7.10
2009-06-03 17:00,30.953,24.190,31.857,7.32
2009-06-03 18:00,31.054,24.294,31.801,7.14
2009-06-03 19:00,31.079,24.316,31.808,7.12
2009-06-03 20:00,31.091,24.326,31.810,7.11
2009-06-03 21:00,31.071,24.306,31.825,7.15
2009-06-03 22:00,31.035,24.252,31.950,7.34
2009-06-03 23:00,30.950,24.129,32.221,7.76
2009-06-04 00:00,31.051,24.221,32.241,7.67
2009-06-04 01:00,31.131,24.301,32.207,7.54
2009-06-04 02:00,31.181,24.350,32.195,7.47
2009-06-04 03:00,31.156,24.330,32.171,7.47
2009-06-04 04:00,31.149,24.316,32.215,7.53
2009-06-04 05:00,31.124,24.298,32.183,7.52
2009-06-04 06:00,31.109,24.327,31.910,7.21
2009-06-04 07:00,31.155,24.348,32.053,7.33
2009-06-04 08:00,31.155,24.360,31.978,7.24
2009-06-04 09:00,31.132,24.304,32.191,7.52
2009-06-04 10:00,31.100,24.260,32.278,7.66
2009-06-04 11:00,31.010,24.162,32.361,7.86
2009-06-04 12:00,31.015,24.162,32.391,7.89
2009-06-04 13:00,31.112,24.262,32.340,7.72
2009-06-04 14:00,31.114,24.264,32.333,7.71
2009-06-04 15:00,31.171,24.334,32.236,7.53
2009-06-04 16:00,31.155,24.315,32.263,7.58
2009-06-04 17:00,31.138,24.308,32.205,7.53
2009-06-04 18:00,31.085,24.233,32.356,7.77
2009-06-04 19:00,31.077,24.264,32.123,7.50
2009-06-04 20:00,31.122,24.310,32.098,7.42
2009-06-04 21:00,31.125,24.287,32.260,7.61
2009-06-04 22:00,31.158,24.320,32.249,7.56
2009-06-04 23:00,31.096,24.220,32.501,7.93
2009-06-05 00:00,31.083,24.208,32.497,7.94
2009-06-05 01:00,31.146,24.277,32.439,7.80
2009-06-05 02:00,31.140,24.265,32.475,7.85
2009-06-05 03:00,31.203,24.333,32.425,7.72
2009-06-05 04:00,31.203,24.353,32.299,7.57
2009-06-05 05:00,31.134,24.283,32.335,7.69
2009-06-05 06:00,31.160,24.311,32.309,7.63
2009-06-05 07:00,31.109,24.227,32.530,7.95
2009-06-05 08:00,31.165,24.320,32.289,7.60
2009-06-05 09:00,31.257,24.435,32.106,7.28
2009-06-05 10:00,31.192,24.335,32.348,7.64
2009-06-05 11:00,31.150,24.277,32.459,7.82
2009-06-05 12:00,31.064,24.170,32.613,8.10
2009-06-05 13:00,31.073,24.187,32.563,8.03
2009-06-05 14:00,31.005,24.138,32.473,8.00
2009-06-05 15:00,31.130,24.268,32.398,7.77
2009-06-05 16:00,31.164,24.331,32.212,7.51
2009-06-05 17:00,31.160,24.300,32.376,7.71
2009-06-05 18:00,31.150,24.297,32.342,7.68
2009-06-05 19:00,31.114,24.253,32.400,7.79
2009-06-05 20:00,31.159,24.294,32.409,7.75
2009-06-05 21:00,31.240,24.400,32.225,7.44
2009-06-05 22:00,31.169,24.308,32.385,7.71
2009-06-05 23:00,31.194,24.347,32.282,7.56
2009-06-06 00:00,31.090,24.201,32.579,8.03
2009-06-06 01:00,31.077,24.178,32.642,8.12
2009-06-06 02:00,31.065,24.164,32.656,8.15
2009-06-06 03:00,31.084,24.191,32.598,8.06
2009-06-06 04:00,31.157,24.284,32.457,7.81
2009-06-06 05:00,31.176,24.314,32.383,7.70
2009-06-06 06:00,31.116,24.277,32.268,7.63
2009-06-06 07:00,31.106,24.243,32.418,7.82
2009-06-06 08:00,31.047,24.166,32.547,8.04
2009-06-06 09:00,31.146,24.282,32.405,7.76
2009-06-06 10:00,31.176,24.325,32.316,7.62
2009-06-06 11:00,31.151,24.287,32.401,7.75
2009-06-06 12:00,31.100,24.213,32.563,8.00
2009-06-06 13:00,31.041,24.140,32.667,8.19
2009-06-06 14:00,31.186,24.294,32.560,7.90
2009-06-06 15:00,31.090,24.179,32.705,8.18
2009-06-06 16:00,31.108,24.208,32.638,8.08
2009-06-06 17:00,31.149,24.269,32.500,7.87
2009-06-06 18:00,31.156,24.292,32.406,7.75
2009-06-06 19:00,31.106,24.240,32.435,7.84
2009-06-06 20:00,31.052,24.169,32.551,8.04
2009-06-06 21:00,31.178,24.328,32.309,7.61
2009-06-06 22:00,31.224,24.386,32.218,7.45
2009-06-06 23:00,31.124,24.251,32.468,7.86
2009-06-07 00:00,31.119,24.208,32.699,8.14
2009-06-07 01:00,31.061,24.168,32.610,8.10
2009-06-07 02:00,31.056,24.146,32.715,8.23
2009-06-07 03:00,31.087,24.196,32.593,8.05
2009-06-07 04:00,31.216,24.347,32.412,7.69
2009-06-07 05:00,31.153,24.270,32.521,7.89
2009-06-07 06:00,31.151,24.274,32.485,7.85
2009-06-07 07:00,31.047,24.146,32.664,8.18
2009-06-07 08:00,31.050,24.150,32.659,8.17
2009-06-07 09:00,31.103,24.211,32.591,8.03
2009-06-07 10:00,31.186,24.339,32.292,7.58
2009-06-07 11:00,31.180,24.320,32.370,7.68
2009-06-07 12:00,31.124,24.234,32.569,7.98
2009-06-07 13:00,31.100,24.206,32.605,8.05
2009-06-07 14:00,30.849,23.894,33.029,8.84
2009-06-07 15:00,31.041,24.130,32.726,8.26
2009-06-07 16:00,31.140,24.258,32.517,7.90
2009-06-07 17:00,31.108,24.229,32.512,7.93
2009-06-07 18:00,31.204,24.335,32.418,7.71
2009-06-07 19:00,31.138,24.266,32.456,7.83
2009-06-07 20:00,31.148,24.280,32.432,7.79
2009-06-07 21:00,31.059,24.165,32.617,8.11
2009-06-07 22:00,31.165,24.302,32.398,7.73
2009-06-07 23:00,31.201,24.340,32.364,7.65
2009-06-08 00:00,31.174,24.308,32.406,7.73
2009-06-08 01:00,30.985,24.066,32.781,8.39
2009-06-08 02:00,31.028,24.122,32.696,8.24
2009-06-08 03:00,31.056,24.163,32.614,8.11
2009-06-08 04:00,31.209,24.348,32.363,7.64
2009-06-08 05:00,31.065,24.187,32.522,7.99
2009-06-08 06:00,31.206,24.343,32.377,7.66
2009-06-08 07:00,31.112,24.239,32.474,7.88
2009-06-08 08:00,31.270,24.393,32.437,7.66
2009-06-08 09:00,31.033,24.130,32.676,8.21
2009-06-08 10:00,31.120,24.238,32.523,7.93
2009-06-08 11:00,31.264,24.421,32.230,7.42
2009-06-08 12:00,31.209,24.332,32.464,7.76
2009-06-08 13:00,30.973,24.045,32.846,8.48
2009-06-08 14:00,30.950,24.001,32.966,8.65
2009-06-08 15:00,31.017,24.090,32.820,8.40
2009-06-08 16:00,31.078,24.180,32.635,8.11
2009-06-08 17:00,31.091,24.197,32.605,8.06
2009-06-08 18:00,31.156,24.283,32.456,7.81
2009-06-08 19:00,31.162,24.281,32.504,7.86
2009-06-08 20:00,31.151,24.266,32.536,7.91
2009-06-08 21:00,31.074,24.182,32.597,8.07
2009-06-08 22:00,31.146,24.261,32.531,7.91
2009-06-08 23:00,31.175,24.307,32.424,7.75
2009-06-09 00:00,31.147,24.267,32.507,7.88
2009-06-09 01:00,31.140,24.256,32.534,7.92
2009-06-09 02:00,31.083,24.180,32.665,8.14
2009-06-09 03:00,31.005,24.056,32.952,8.57
2009-06-09 04:00,31.124,24.234,32.569,7.98
2009-06-09 05:00,31.129,24.232,32.607,8.02
2009-06-09 06:00,31.159,24.281,32.484,7.84
2009-06-09 07:00,31.134,24.234,32.629,8.04
2009-06-09 08:00,31.101,24.199,32.648,8.10
2009-06-09 09:00,31.133,24.238,32.594,8.00
2009-06-09 10:00,31.121,24.229,32.583,8.00
2009-06-09 11:00,31.197,24.327,32.428,7.73
2009-06-09 12:00,31.178,24.286,32.570,7.92
2009-06-09 13:00,31.100,24.179,32.765,8.24
2009-06-09 14:00,30.990,24.020,33.081,8.74
2009-06-09 15:00,30.919,23.919,33.265,9.04
2009-06-09 16:00,31.032,24.090,32.902,8.48
2009-06-09 17:00,31.098,24.181,32.738,8.21
2009-06-09 18:00,31.136,24.243,32.589,7.99
2009-06-09 19:00,31.203,24.321,32.492,7.80
2009-06-09 20:00,31.141,24.236,32.652,8.06
2009-06-09 21:00,31.107,24.190,32.738,8.20
2009-06-09 22:00,31.078,24.150,32.811,8.32
2009-06-09 23:00,31.151,24.242,32.679,8.08
2009-06-10 00:00,31.125,24.231,32.595,8.01
2009-06-10 01:00,31.149,24.241,32.668,8.07
2009-06-10 02:00,31.154,24.257,32.606,7.99
2009-06-10 03:00,30.979,24.026,32.986,8.64
2009-06-10 04:00,31.084,24.170,32.724,8.21
2009-06-10 05:00,31.067,24.153,32.734,8.24
2009-06-10 06:00,31.237,24.364,32.432,7.69
2009-06-10 07:00,31.171,24.296,32.462,7.80
2009-06-10 08:00,31.125,24.217,32.679,8.11
2009-06-10 09:00,31.045,24.109,32.864,8.42
2009-06-10 10:00,31.033,24.089,32.911,8.49
2009-06-10 11:00,31.064,24.130,32.848,8.38
2009-06-10 12:00,31.147,24.246,32.624,8.02
2009-06-10 13:00,31.150,24.253,32.602,7.99
2009-06-10 14:00,31.122,24.216,32.668,8.10
2009-06-10 15:00,30.971,24.012,33.020,8.69
2009-06-10 16:00,31.015,24.070,32.928,8.53
2009-06-10 17:00,31.034,24.090,32.912,8.49
2009-06-10 18:00,31.082,24.153,32.815,8.32
2009-06-10 19:00,31.134,24.222,32.696,8.12
2009-06-10 20:00,31.090,24.160,32.814,8.31
2009-06-10 21:00,31.103,24.171,32.827,8.31
2009-06-10 22:00,30.980,24.016,33.046,8.71
2009-06-10 23:00,30.998,24.037,33.021,8.66
2009-06-11 00:00,31.028,24.080,32.940,8.53
2009-06-11 01:00,31.159,24.249,32.678,8.07
2009-06-11 02:00,31.100,24.177,32.773,8.25
2009-06-11 03:00,31.114,24.194,32.753,8.21
2009-06-11 04:00,30.932,23.965,33.075,8.80
2009-06-11 05:00,31.031,24.091,32.893,8.47
2009-06-11 06:00,31.108,24.195,32.714,8.17
2009-06-11 07:00,31.106,24.189,32.737,8.20
2009-06-11 08:00,30.983,24.015,33.065,8.73
2009-06-11 09:00,31.064,24.123,32.891,8.43
2009-06-11 10:00,31.018,24.060,32.998,8.61
2009-06-11 11:00,30.980,24.010,33.079,8.75
2009-06-11 12:00,30.978,23.999,33.128,8.81
2009-06-11 13:00,31.037,24.088,32.940,8.52
2009-06-11 14:00,31.071,24.145,32.805,8.32
2009-06-11 15:00,31.072,24.134,32.873,8.40
2009-06-11 16:00,30.971,24.006,33.054,8.73
2009-06-11 17:00,30.976,24.018,33.017,8.68
2009-06-11 18:00,30.938,23.974,33.056,8.77
2009-06-11 19:00,31.006,24.062,32.928,8.54
2009-06-11 20:00,31.169,24.270,32.612,7.98
2009-06-11 21:00,31.055,24.126,32.823,8.36
2009-06-11 22:00,31.035,24.098,32.871,8.44
2009-06-11 23:00,30.999,24.054,32.929,8.55
2009-06-12 00:00,31.106,24.184,32.771,8.24
2009-06-12 01:00,31.239,24.357,32.484,7.75
2009-06-12 02:00,31.121,24.207,32.718,8.16
2009-06-12 03:00,31.179,24.276,32.629,7.99
2009-06-12 04:00,30.915,23.952,33.059,8.80
2009-06-12 05:00,31.011,24.079,32.857,8.45
2009-06-12 06:00,31.118,24.202,32.732,8.18
2009-06-12 07:00,31.137,24.234,32.649,8.06
2009-06-12 08:00,31.167,24.269,32.601,7.97
2009-06-12 09:00,31.171,24.280,32.563,7.92
2009-06-12 10:00,31.139,24.242,32.608,8.01
2009-06-12 11:00,31.124,24.220,32.653,8.08
2009-06-12 12:00,31.143,24.240,32.646,8.05
2009-06-12 13:00,31.200,24.312,32.531,7.85
2009-06-12 14:00,31.120,24.214,32.666,8.10
2009-06-12 15:00,31.143,24.245,32.612,8.01
2009-06-12 16:00,31.008,24.077,32.845,8.44
2009-06-12 17:00,31.003,24.072,32.849,8.45
2009-06-12 18:00,31.134,24.228,32.663,8.08
2009-06-12 19:00,31.196,24.302,32.570,7.90
2009-06-12 20:00,31.185,24.291,32.576,7.92
2009-06-12 21:00,31.236,24.349,32.515,7.79
2009-06-12 22:00,31.230,24.343,32.518,7.80
2009-06-12 23:00,31.191,24.301,32.548,7.88
2009-06-13 00:00,31.154,24.255,32.614,8.00
2009-06-13 01:00,31.129,24.223,32.666,8.09
2009-06-13 02:00,31.169,24.275,32.578,7.94
2009-06-13 03:00,31.188,24.296,32.562,7.90
2009-06-13 04:00,31.144,24.241,32.638,8.04
2009-06-13 05:00,31.021,24.092,32.833,8.41
2009-06-13 06:00,31.163,24.263,32.614,7.99
2009-06-13 07:00,31.165,24.271,32.583,7.95
2009-06-13 08:00,31.223,24.340,32.494,7.78
2009-06-13 09:00,31.196,24.312,32.511,7.83
2009-06-13 10:00,31.169,24.275,32.578,7.94
2009-06-13 11:00,31.187,24.297,32.553,7.89
2009-06-13 12:00,31.193,24.304,32.542,7.87
2009-06-13 13:00,31.133,24.228,32.662,8.08
2009-06-13 14:00,31.197,24.306,32.554,7.88
2009-06-13 15:00,31.158,24.260,32.610,7.99
2009-06-13 16:00,31.187,24.295,32.561,7.90
2009-06-13 17:00,31.017,24.096,32.787,8.36
2009-06-13 18:00,31.022,24.106,32.758,8.32
2009-06-13 19:00,31.097,24.191,32.678,8.14
2009-06-13 20:00,31.148,24.249,32.617,8.01
2009-06-13 21:00,31.197,24.301,32.579,7.91
2009-06-13 22:00,31.258,24.367,32.527,7.78
2009-06-13 23:00,31.209,24.318,32.548,7.86
2009-06-14 00:00,31.208,24.317,32.547,7.86
2009-06-14 01:00,31.168,24.270,32.602,7.97
2009-06-14 02:00,31.226,24.341,32.505,7.79
2009-06-14 03:00,31.240,24.356,32.493,7.76
2009-06-14 04:00,31.236,24.352,32.498,7.77
2009-06-14 05:00,31.105,24.200,32.669,8.12
2009-06-14 06:00,31.059,24.151,32.701,8.21
2009-06-14 07:00,31.112,24.201,32.701,8.15
2009-06-14 08:00,31.191,24.287,32.632,7.98
2009-06-14 09:00,31.202,24.296,32.643,7.98
2009-06-14 10:00,31.261,24.353,32.631,7.90
2009-06-14 11:00,31.300,24.396,32.592,7.81
2009-06-14 12:00,31.255,24.369,32.499,7.75
2009-06-14 13:00,31.222,24.334,32.527,7.82
2009-06-14 14:00,31.254,24.370,32.490,7.74
2009-06-14 15:00,31.271,24.389,32.472,7.70
2009-06-14 16:00,31.154,24.259,32.589,7.97
2009-06-14 17:00,31.134,24.232,32.637,8.05
2009-06-14 18:00,31.038,24.127,32.723,8.26
2009-06-14 19:00,31.032,24.085,32.936,8.52
2009-06-14 20:00,31.196,24.276,32.730,8.09
2009-06-14 21:00,31.225,24.312,32.673,7.99
2009-06-14 22:00,31.258,24.348,32.645,7.92
2009-06-14 23:00,31.299,24.394,32.599,7.82
2009-06-15 00:00,31.233,24.335,32.579,7.87
2009-06-15 01:00,31.164,24.269,32.590,7.96
2009-06-15 02:00,31.242,24.343,32.579,7.86
2009-06-15 03:00,31.269,24.382,32.504,7.74
2009-06-15 04:00,31.209,24.318,32.548,7.86
2009-06-15 05:00,31.248,24.358,32.526,7.79
2009-06-15 06:00,31.084,24.153,32.825,8.33
2009-06-15 07:00,31.083,24.152,32.824,8.33
2009-06-15 08:00,31.120,24.194,32.784,8.24
2009-06-15 09:00,31.165,24.245,32.734,8.13
2009-06-15 10:00,31.288,24.384,32.597,7.83
2009-06-15 11:00,31.270,24.362,32.631,7.89
2009-06-15 12:00,31.210,24.306,32.625,7.95
2009-06-15 13:00,31.188,24.272,32.705,8.07
2009-06-15 14:00,31.234,24.333,32.597,7.89
2009-06-15 15:00,31.240,24.341,32.586,7.87
2009-06-15 16:00,31.202,24.304,32.592,7.92
2009-06-15 17:00,31.260,24.345,32.672,7.95
2009-06-15 18:00,31.121,24.193,32.793,8.25
2009-06-15 19:00,31.143,24.223,32.738,8.16
2009-06-15 20:00,31.012,24.057,32.984,8.60
2009-06-15 21:00,31.202,24.274,32.769,8.13
2009-06-15 22:00,31.258,24.333,32.738,8.03
2009-06-15 23:00,31.340,24.421,32.672,7.86
2009-06-16 00:00,31.247,24.330,32.694,7.99
2009-06-16 01:00,31.263,24.362,32.591,7.85
2009-06-16 02:00,31.185,24.265,32.728,8.10
2009-06-16 03:00,31.169,24.251,32.721,8.11
2009-06-16 04:00,31.244,24.340,32.615,7.90
2009-06-16 05:00,31.205,24.298,32.646,7.98
2009-06-16 06:00,31.233,24.324,32.647,7.95
2009-06-16 07:00,31.224,24.304,32.714,8.04
2009-06-16 08:00,31.117,24.172,32.899,8.38
2009-06-16 09:00,31.188,24.249,32.840,8.23
2009-06-16 10:00,31.198,24.257,32.850,8.23
2009-06-16 11:00,31.257,24.332,32.737,8.03
2009-06-16 12:00,31.223,24.288,32.806,8.15
2009-06-16 13:00,31.255,24.327,32.752,8.05
2009-06-16 14:00,31.319,24.404,32.652,7.86
2009-06-16 15:00,31.174,24.223,32.911,8.33
2009-06-16 16:00,31.288,24.387,32.581,7.81
2009-06-16 17:00,31.276,24.359,32.679,7.94
2009-06-16 18:00,31.221,24.291,32.779,8.12
2009-06-16 19:00,31.150,24.196,32.939,8.39
2009-06-16 20:00,31.113,24.144,33.039,8.55
2009-06-16 21:00,31.145,24.178,33.019,8.49
2009-06-16 22:00,31.223,24.270,32.916,8.28
2009-06-16 23:00,31.312,24.359,32.882,8.14
2009-06-17 00:00,31.320,24.372,32.847,8.09
2009-06-17 01:00,31.319,24.387,32.753,7.98
2009-06-17 02:00,31.250,24.299,32.891,8.22
2009-06-17 03:00,31.175,24.203,33.039,8.48
2009-06-17 04:00,31.266,24.333,32.779,8.07
2009-06-17 05:00,31.257,24.320,32.804,8.11
2009-06-17 06:00,31.238,24.307,32.778,8.10
2009-06-17 07:00,31.229,24.275,32.913,8.27
2009-06-17 08:00,31.242,24.288,32.908,8.25
2009-06-17 09:00,31.179,24.206,33.043,8.48
2009-06-17 10:00,31.251,24.285,32.976,8.32
2009-06-17 11:00,31.283,24.319,32.956,8.26
2009-06-17 12:00,31.294,24.341,32.890,8.17
2009-06-17 13:00,31.278,24.338,32.816,8.10
2009-06-17 14:00,31.343,24.399,32.818,8.03
2009-06-17 15:00,31.277,24.326,32.882,8.18
2009-06-17 16:00,31.295,24.350,32.840,8.11
2009-06-17 17:00,31.310,24.379,32.753,7.99
2009-06-17 18:00,31.287,24.348,32.807,8.08
2009-06-17 19:00,31.260,24.324,32.799,8.10
2009-06-17 20:00,31.187,24.198,33.126,8.57
2009-06-17 21:00,31.269,24.296,33.010,8.34
2009-06-17 22:00,31.270,24.303,32.977,8.30
2009-06-17 23:00,31.282,24.321,32.938,8.24
2009-06-18 00:00,31.319,24.364,32.888,8.14
2009-06-18 01:00,31.371,24.425,32.819,8.00
2009-06-18 02:00,31.326,24.364,32.929,8.18
2009-06-18 03:00,31.332,24.383,32.850,8.08
2009-06-18 04:00,31.275,24.316,32.931,8.24
2009-06-18 05:00,31.300,24.362,32.794,8.05
2009-06-18 06:00,31.275,24.336,32.813,8.10
2009-06-18 07:00,31.354,24.439,32.643,7.81
2009-06-18 08:00,31.227,24.249,33.055,8.44
2009-06-18 09:00,31.213,24.222,33.134,8.55
2009-06-18 10:00,31.235,24.260,33.037,8.41
2009-06-18 11:00,31.309,24.349,32.921,8.19
2009-06-18 12:00,31.276,24.337,32.814,8.10
2009-06-18 13:00,31.296,24.347,32.867,8.14
2009-06-18 14:00,31.400,24.454,32.813,7.96
2009-06-18 15:00,31.306,24.341,32.952,8.23
2009-06-18 16:00,31.242,24.258,33.086,8.46
2009-06-18 17:00,31.241,24.262,33.060,8.43
2009-06-18 18:00,31.340,24.399,32.798,8.01
2009-06-18 19:00,31.374,24.441,32.737,7.90
2009-06-18 20:00,31.293,24.329,32.957,8.25
2009-06-18 21:00,31.180,24.193,33.120,8.57
2009-06-18 22:00,31.130,24.139,33.156,8.67
2009-06-18 23:00,31.144,24.181,32.992,8.46
2009-06-19 00:00,31.147,24.182,33.004,8.47
2009-06-19 01:00,31.294,24.348,32.848,8.12
2009-06-19 02:00,31.405,24.469,32.750,7.88
2009-06-19 03:00,31.338,24.388,32.856,8.08
2009-06-19 04:00,31.311,24.354,32.906,8.17
2009-06-19 05:00,31.234,24.256,33.053,8.43
2009-06-19 06:00,31.249,24.273,33.033,8.39
2009-06-19 07:00,31.350,24.387,32.926,8.15
2009-06-19 08:00,31.338,24.388,32.856,8.08